Portland, OR

6:29 AM PDT on April 22, 2018 (GMT -0700)
Portland International

Weather History for KPDX - November, 2013

Change the Weather History Date:

Friday, November 8, 2013

  Actual Average Record
Temperature  
Mean Temperature 51 °F 49 °F  
Max Temperature 53 °F 55 °F 68 °F (2016)
Min Temperature 48 °F 42 °F 27 °F (1977)
Degree Days  
Heating Degree Days 14 16  
Month to date heating degree days 118 124  
Since 1 July heating degree days 557 542  
Cooling Degree Days 0 0  
Month to date cooling degree days 0 0  
Year to date cooling degree days 539 424  
Moisture  
Dew Point 45 °F    
Average Humidity 85    
Maximum Humidity 93    
Minimum Humidity 77    
Precipitation  
Precipitation 0.13 in 0.18 in 1.38 in (1968)
Month to date precipitation 1.88 1.32  
Year to date precipitation 23.93 26.23  
Snow  
Snow 0.00 in - 0.00 in (2016)
Month to date snowfall  
Since 1 July snowfall 0.0  
Since 1 September snowfall 0.0  
Snow Depth 0.00 in    
Sea Level Pressure  
Sea Level Pressure 30.17 in    
Wind  
Wind Speed 4 mph (South)    
Max Wind Speed 10 mph    
Max Gust Speed 12 mph    
Visibility 9 miles    
Events Fog , Rain    
T = Trace of Precipitation, MM = Missing Value Source: NWS Daily Summary

Daily Weather History Graph

Daily Weather History Graph

Search for Another Location

Airport or City:

Astronomy

Nov. 08, 2013 Rise Set
Actual Time 7:00 AM PST 4:47 PM PST
Civil Twilight 6:28 AM PST 5:18 PM PST
Nautical Twilight 5:53 AM PST 5:54 PM PST
Astronomical Twilight 5:18 AM PST 6:29 PM PST
Moon 12:00 PM PST (11/8) 10:15 PM PST (11/8)
Length of Visible Light 10h 50m
Length of Day
9h 46m
Waxing Crescent, 34% of the Moon is Illuminated
Nov 8
Waxing Crescent
Nov 9
First Quarter
Nov 17
Full
Nov 25
Last Quarter
Dec 2
New

Hourly Weather History & Observations

Time (PST) Temp. Dew Point Humidity Pressure Visibility Wind Dir Wind Speed Gust Speed Precip Events Conditions
12:53 AM 48.9 °F 45.0 °F 86% 30.14 in 10.0 mi SSW 4.6 mph - N/A   Overcast
1:53 AM 48.9 °F 45.0 °F 86% 30.15 in 10.0 mi South 3.5 mph - N/A   Mostly Cloudy
2:53 AM 48.9 °F 45.0 °F 86% 30.17 in 10.0 mi Calm Calm - N/A   Overcast
3:53 AM 48.0 °F 45.0 °F 89% 30.16 in 10.0 mi SSW 5.8 mph - 0.00 in   Mostly Cloudy
4:53 AM 48.0 °F 45.0 °F 89% 30.17 in 10.0 mi SSW 4.6 mph - N/A   Overcast
5:53 AM 48.0 °F 45.0 °F 89% 30.18 in 10.0 mi Calm Calm - N/A   Overcast
6:53 AM 48.0 °F 44.1 °F 86% 30.18 in 10.0 mi South 4.6 mph - N/A   Overcast
7:53 AM 48.9 °F 45.0 °F 86% 30.19 in 10.0 mi SSW 4.6 mph - 0.00 in   Overcast
8:53 AM 48.9 °F 46.0 °F 90% 30.20 in 10.0 mi South 4.6 mph - N/A   Overcast
9:53 AM 50.0 °F 46.0 °F 86% 30.20 in 10.0 mi South 4.6 mph - N/A   Overcast
10:53 AM 51.1 °F 46.0 °F 83% 30.21 in 10.0 mi South 5.8 mph - N/A   Overcast
11:53 AM 51.1 °F 46.0 °F 83% 30.20 in 10.0 mi South 5.8 mph - N/A   Overcast
12:53 PM 51.1 °F 45.0 °F 80% 30.19 in 10.0 mi South 4.6 mph - N/A   Overcast
1:53 PM 52.0 °F 45.0 °F 77% 30.17 in 10.0 mi South 4.6 mph - N/A   Overcast
2:34 PM 51.8 °F 44.6 °F 76% 30.18 in 10.0 mi South 4.6 mph - N/A   Overcast
2:53 PM 52.0 °F 46.0 °F 80% 30.18 in 10.0 mi South 5.8 mph - N/A   Overcast
3:12 PM 51.8 °F 44.6 °F 76% 30.17 in 10.0 mi SSE 5.8 mph - N/A   Overcast
3:53 PM 52.0 °F 45.0 °F 77% 30.18 in 10.0 mi South 4.6 mph - N/A   Overcast
4:28 PM 50.0 °F 44.6 °F 82% 30.17 in 5.0 mi WSW 6.9 mph - 0.00 in Rain Rain
4:53 PM 48.0 °F 45.0 °F 89% 30.18 in 5.0 mi SSW 4.6 mph - 0.11 in Rain Light Rain
5:01 PM 48.2 °F 44.6 °F 87% 30.17 in 10.0 mi South 3.5 mph - 0.00 in Rain Light Rain
5:53 PM 48.9 °F 46.0 °F 90% 30.17 in 10.0 mi East 4.6 mph - 0.02 in   Overcast
6:53 PM 48.0 °F 46.0 °F 93% 30.17 in 10.0 mi Calm Calm - N/A   Overcast
7:53 PM 45.0 °F 44.1 °F 97% 30.17 in 6.0 mi Calm Calm - N/A   Overcast
8:53 PM 46.0 °F 44.1 °F 93% 30.17 in 9.0 mi Calm Calm - N/A Fog Shallow Fog
9:53 PM 44.1 °F 43.0 °F 96% 30.17 in 7.0 mi Calm Calm - N/A Fog Shallow Fog
10:42 PM 44.6 °F 42.8 °F 93% 30.16 in 10.0 mi Calm Calm - N/A   Mostly Cloudy
10:51 PM 44.6 °F 44.6 °F 100% 30.16 in 10.0 mi Calm Calm - N/A   Overcast
10:53 PM 45.0 °F 44.1 °F 97% 30.16 in 10.0 mi Calm Calm - N/A   Overcast
11:30 PM 44.6 °F 44.6 °F 100% 30.15 in 6.0 mi Calm Calm - N/A   Overcast
11:53 PM 44.1 °F 43.0 °F 96% 30.15 in 4.0 mi Calm Calm - N/A   Overcast